Temperature
22 22 21 21 20 20 20 20 19 19 19 19 19 19 19 19 19 19 19 19 19 19 18 18 18 18 19 19 19 19 19 19 18 18 18 18 18 17 17 17 17 17 17
22 22 21 21 20 20 20 20 19 19 19 19 19 19 19 19 19 19 19 18 18 18 18 18 18 18 18 18 19 18 18 18 18 18 18 18 17 17 17 17 17 17 17
22 22 22 21 21 20 20 19 19 19 19 19 19 19 19 19 19 19 18 18 18 18 18 18 18 18 18 18 18 18 18 18 18 18 18 18 17 17 17 17 17 17 17
22 22 21 21 21 20 20 19 19 19 19 19 19 19 19 19 18 18 18 18 18 18 18 18 18 18 18 18 18 18 18 18 17 17 17 17 17 17 17 17 17 17 17
21 21 22 21 21 20 20 19 19 19 19 19 19 19 18 18 18 18 18 18 18 18 18 18 18 18 18 18 18 18 18 17 17 17 17 17 18 17 17 17 17 17 17
21 21 22 21 21 20 20 19 19 19 19 19 19 18 18 18 18 18 18 18 18 18 18 18 18 18 18 18 18 18 18 18 17 17 17 17 18 17 17 17 17 17 17
21 21 22 21 21 20 20 20 19 19 19 19 19 18 18 18 18 18 18 18 18 18 18 18 18 18 18 18 18 18 18 18 17 17 17 18 18 17 17 17 17 17 17
21 21 22 21 21 20 20 20 19 19 19 19 19 18 18 18 18 18 18 18 18 18 18 18 18 18 18 18 18 18 18 18 17 17 18 18 18 17 17 17 17 17 17
21 21 22 21 20 20 20 20 19 19 19 19 19 18 18 18 18 18 18 18 18 18 18 18 18 18 18 19 19 18 18 18 18 17 18 18 18 17 17 17 17 17 17
22 21 21 20 20 20 20 20 19 19 19 19 19 19 19 19 18 18 18 18 18 18 18 18 18 18 18 19 19 19 19 18 18 18 18 18 18 18 17 17 17 17 17
22 21 20 19 20 19 19 19 19 19 19 19 19 19 19 18 18 18 18 18 18 18 18 18 18 18 18 19 19 19 19 18 18 18 18 18 18 18 18 17 17 17 17
22 21 21 20 19 19 18 19 19 19 19 19 19 19 18 18 18 18 18 18 18 18 18 18 18 18 18 18 18 19 18 18 18 18 18 18 18 18 18 17 17 17 17
22 22 21 20 20 19 19 19 19 18 19 18 18 18 18 18 18 18 18 18 18 18 18 18 18 18 18 18 18 18 18 18 18 18 18 18 18 18 18 18 17 17 17
22 22 21 20 20 20 19 19 19 19 19 18 18 18 18 18 18 18 18 18 18 18 18 18 18 18 18 18 18 18 18 18 18 18 18 18 18 18 18 18 17 17 17
22 22 21 21 20 20 19 19 19 19 19 19 19 19 18 18 18 18 18 18 18 18 18 18 18 18 18 18 18 18 18 18 18 18 18 18 18 18 18 18 17 17 17
21 21 21 20 20 19 19 20 19 19 19 19 19 19 18 18 18 18 18 18 18 18 18 18 18 18 18 18 18 18 18 18 18 18 18 18 18 18 18 17 17 17 17
21 21 20 20 19 19 19 19 19 19 19 19 19 19 18 18 18 18 18 18 18 18 18 18 18 18 18 18 18 18 18 18 18 17 17 17 18 17 17 17 17 17 17
21 20 20 19 19 19 19 19 19 19 19 19 19 19 18 18 18 18 18 18 18 18 18 18 18 18 18 18 18 18 18 18 18 17 17 17 17 17 17 17 17 17 17
21 20 20 19 19 19 19 19 19 19 19 19 19 18 18 18 18 18 18 18 18 18 18 18 18 18 18 18 18 18 18 18 18 18 18 17 17 17 17 17 17 17 17
20 20 19 19 19 18 18 19 18 19 19 19 18 18 18 18 18 18 18 18 18 18 18 18 18 18 18 18 18 18 18 18 18 18 18 18 17 17 17 17 17 17 17
20 19 19 18 18 18 18 18 18 18 18 18 18 18 18 18 18 18 18 18 18 18 18 18 18 18 18 18 18 18 18 18 18 18 18 18 18 17 17 17 17 17 17
19 19 19 18 18 18 18 18 18 18 18 18 18 18 18 18 18 18 18 18 18 18 18 18 17 17 17 18 18 18 18 18 18 18 18 18 18 18 17 17 17 17 17
19 19 18 18 18 18 18 18 18 18 18 18 18 18 18 18 18 18 18 18 18 18 18 18 17 18 17 18 18 18 18 18 18 18 18 18 18 17 17 17 17 17 17
19 19 19 18 18 18 18 18 18 18 17 18 18 18 18 18 18 18 18 18 18 18 18 18 17 17 18 18 18 18 18 18 18 18 18 18 18 18 17 17 17 17 17
19 19 18 18 18 18 18 18 18 18 18 18 18 18 18 18 18 17 17 17 17 17 17 17 17 17 17 17 18 18 18 18 18 18 18 18 18 18 17 17 17 17 17
19 19 18 18 18 18 18 17 17 17 17 17 18 18 18 17 17 17 17 17 17 17 17 17 17 17 17 17 18 18 18 18 18 18 18 18 18 18 18 17 17 17 17
Wind_Speed
20 19 20 19 17 17 17 17 16 16 15 15 15 15 15 15 15 15 15 15 15 15 15 15 15 16 16 17 18 18 18 18 19 19 19 18 17 16 15 17 19 18 18
23 21 21 20 18 17 17 17 17 16 15 15 15 14 14 14 14 14 15 15 15 15 16 15 15 16 16 16 16 16 16 16 17 18 19 18 16 15 14 16 19 16 17
23 21 21 20 19 18 18 17 17 16 15 15 14 14 13 13 14 14 14 14 15 15 15 15 16 16 16 15 14 14 13 13 14 16 17 16 16 17 19 20 19 17 16
23 21 20 20 19 19 18 17 16 16 15 15 14 13 13 13 13 13 14 14 14 15 15 15 15 15 15 14 12 11 10 10 10 11 11 15 16 17 17 18 17 16 16
21 20 21 21 20 19 18 17 16 16 15 14 13 13 13 13 13 13 14 14 14 14 15 15 15 15 14 12 10 8 6 5 5 7 15 18 16 15 16 16 15 15 15
21 21 22 21 20 19 18 17 16 15 15 14 13 13 13 13 13 13 14 14 14 14 14 14 14 13 12 10 8 5 3 1 1 10 16 17 15 15 15 15 14 14 14
21 21 21 21 20 19 18 17 16 15 15 14 14 13 13 13 13 14 14 13 14 14 14 13 13 12 11 8 5 2 1 3 1 12 16 16 15 15 14 14 14 13 13
21 21 20 20 20 19 18 17 16 15 15 14 14 13 13 13 13 13 13 13 13 13 12 12 12 11 9 7 3 0 2 6 6 15 17 15 15 14 14 13 13 12 12
21 21 18 19 18 18 17 17 16 16 15 14 14 13 13 14 13 13 13 12 12 12 11 11 10 9 8 5 2 2 3 6 2 12 16 14 14 14 13 13 12 12 12
20 20 18 18 17 16 16 16 16 16 15 15 14 14 14 14 13 13 13 12 12 11 11 10 9 8 7 5 3 4 5 6 2 13 15 14 15 13 13 12 11 11 11
17 17 18 18 16 16 17 17 16 16 15 15 14 14 14 13 13 12 13 12 11 10 10 9 8 7 6 6 6 5 5 4 8 13 13 16 15 13 12 11 11 11 11
15 16 15 17 15 15 15 16 14 14 14 13 13 14 12 10 11 13 15 12 11 10 9 8 8 7 6 6 7 7 5 2 8 13 14 18 15 13 12 11 10 10 10
12 12 14 15 14 12 10 12 10 10 12 12 14 14 11 10 11 13 11 10 10 10 9 8 9 8 6 4 3 4 3 4 8 12 15 17 15 13 11 10 10 10 9
11 10 12 13 12 9 10 9 8 8 8 9 12 12 9 5 6 8 7 9 9 8 7 7 5 5 4 4 3 2 1 5 10 12 14 16 15 13 11 10 10 10 9
11 11 11 12 9 7 7 7 8 7 8 9 11 9 9 4 4 5 4 5 7 7 6 3 2 3 2 1 2 1 2 4 10 12 13 15 14 12 11 10 9 9 9
11 10 10 12 11 8 6 4 3 5 7 9 10 10 9 7 4 3 3 3 3 6 5 3 3 3 2 1 1 1 2 4 7 11 13 13 14 13 12 11 10 10 10
11 10 10 11 12 9 8 6 5 4 7 6 8 10 9 9 7 4 4 3 3 5 5 3 3 3 3 3 2 2 2 3 4 7 11 12 12 13 12 12 11 10 10
11 10 11 12 13 10 7 6 4 4 5 5 8 9 9 10 10 5 4 4 5 6 4 3 2 2 2 2 2 1 2 3 4 5 8 11 12 12 13 13 12 11 10
10 10 11 10 12 11 8 6 4 4 4 5 7 7 9 10 10 6 4 4 5 4 3 4 3 2 1 1 2 2 1 2 3 5 5 8 11 12 13 14 14 13 12
11 10 11 10 11 10 8 6 4 4 4 4 5 6 9 9 9 7 5 5 4 3 3 3 4 2 1 1 2 2 1 2 2 2 3 5 8 11 14 14 13 13 13
11 11 11 11 11 9 7 8 7 6 5 5 5 8 9 9 9 5 4 5 3 3 4 5 3 3 2 2 1 2 3 4 3 2 2 2 3 7 9 13 13 12 12
11 11 11 10 11 10 8 8 6 6 6 6 5 7 9 8 8 8 5 5 4 4 4 4 3 1 3 3 1 1 2 2 3 5 4 4 3 4 6 10 11 12 12
11 11 11 11 10 10 10 8 7 6 5 6 7 7 7 8 8 5 7 4 5 5 5 5 4 4 2 2 2 1 0 1 2 2 4 4 4 3 2 5 10 11 11
11 11 9 10 10 10 10 10 11 9 7 7 7 7 7 7 7 7 7 6 5 4 6 6 6 3 2 2 2 1 0 1 0 1 2 3 5 5 4 3 5 9 10
11 10 9 9 9 9 9 11 10 9 7 6 7 8 7 6 6 7 7 5 5 3 5 4 4 2 2 3 2 3 3 2 3 2 2 3 3 4 5 4 3 5 9
10 10 10 10 9 9 10 10 10 10 9 8 8 9 7 6 6 7 7 5 5 4 5 4 4 4 2 1 2 2 1 2 3 3 3 4 4 4 5 4 3 4 7
Wind_Direction
125 129 130 130 129 128 127 126 123 120 117 113 108 103 99 97 96 95 96 97 97 97 97 96 94 92 91 90 91 93 95 96 97 97 95 93 92 93 98 103 98 95 98
125 130 130 131 130 129 129 128 127 125 121 117 112 108 105 102 100 99 100 100 99 99 99 98 96 95 95 95 97 100 103 106 107 108 103 94 89 89 90 93 95 101 101
125 130 132 131 132 132 130 130 129 127 124 120 117 114 111 108 106 105 104 102 102 101 102 102 99 98 98 100 102 106 111 116 123 126 118 103 92 87 90 94 100 103 101
128 136 134 134 134 134 134 132 131 130 128 125 122 119 116 113 111 109 107 105 104 104 104 103 102 100 101 103 107 113 120 130 141 142 123 106 98 94 95 98 101 103 103
130 130 132 137 136 136 136 135 134 133 131 128 126 122 119 117 115 112 110 108 107 106 105 105 105 104 104 107 113 121 128 143 158 126 98 96 97 102 100 100 101 103 104
130 131 136 138 138 138 138 137 136 135 133 131 129 125 122 119 115 113 112 111 109 109 108 108 108 107 108 111 118 122 123 222 250 109 107 106 106 107 105 104 103 103 105
135 132 139 140 140 141 140 140 139 138 136 134 131 129 126 122 118 116 114 113 111 111 111 110 110 110 113 117 124 133 309 310 308 104 101 104 111 111 108 107 106 106 107
134 134 139 142 142 143 143 144 143 141 140 138 135 133 130 126 123 121 119 117 115 114 114 113 113 114 117 122 131 185 310 312 89 108 105 108 118 116 114 112 111 109 110
134 135 144 146 146 147 147 147 147 145 143 141 138 136 134 130 128 127 124 122 120 119 119 119 118 120 125 134 161 266 299 315 39 118 114 115 121 120 119 118 117 116 115
138 142 149 150 149 152 152 152 151 149 146 145 144 142 138 137 137 137 133 127 126 125 124 124 127 129 138 159 203 256 296 311 108 106 112 124 128 125 124 124 122 122 119
144 147 154 151 155 159 157 154 155 154 153 150 152 153 153 156 152 154 133 134 134 134 134 136 142 147 158 185 216 249 282 275 109 104 114 131 133 130 129 129 128 127 126
149 154 156 154 158 164 159 152 161 163 161 169 163 169 180 169 153 139 136 142 145 149 153 161 167 176 195 198 208 228 249 224 116 118 130 138 137 136 134 135 134 133 133
157 157 154 153 158 163 146 158 165 163 164 179 169 178 184 152 137 135 146 151 161 169 180 172 189 203 199 201 194 221 224 112 109 116 136 141 141 142 142 144 144 143 142
163 158 153 152 158 155 152 164 162 158 169 171 166 181 164 154 146 147 153 167 175 183 181 187 204 179 161 184 199 248 33 102 110 120 144 146 146 150 152 154 154 154 154
163 163 155 147 148 146 144 162 165 158 168 157 159 173 155 151 143 141 139 167 176 166 178 194 180 134 139 179 238 163 86 98 120 128 142 152 154 158 161 165 166 166 165
169 167 154 145 144 146 149 163 143 151 151 149 155 161 160 145 132 138 145 173 171 162 164 167 159 147 171 169 225 101 82 82 109 130 147 159 164 167 170 173 175 176 175
170 168 157 153 149 157 162 174 162 156 148 143 146 153 160 152 146 160 159 177 167 148 151 159 166 171 184 186 195 151 124 116 113 131 150 162 171 178 180 181 182 182 184
168 165 163 167 157 159 167 177 158 156 143 143 146 154 164 155 155 167 168 174 154 156 166 165 189 183 175 169 170 183 141 135 148 161 167 170 174 177 185 190 187 187 190
161 159 163 161 156 162 170 170 163 154 144 147 150 156 166 163 163 176 165 148 170 169 178 187 149 138 121 130 191 182 191 175 162 187 180 175 171 167 176 189 194 193 195
156 160 161 159 160 161 164 163 167 163 157 156 156 160 168 169 173 182 158 162 185 174 162 105 99 88 92 239 249 170 208 195 187 169 186 181 177 173 175 178 185 194 200
159 162 166 167 163 162 167 171 178 178 174 169 164 167 173 175 175 190 161 160 184 158 142 137 133 156 217 218 233 190 209 202 181 178 187 160 178 171 168 169 181 185 193
164 167 172 174 171 172 173 176 178 177 176 174 163 166 176 175 176 187 154 172 167 141 141 139 138 183 222 188 226 222 203 189 206 194 172 185 186 167 172 177 175 178 188
171 177 181 179 177 181 174 171 172 171 182 170 163 169 176 175 184 184 159 172 156 166 156 167 173 198 234 187 214 261 259 162 183 178 196 178 164 173 190 176 176 181 189
174 177 176 179 180 180 176 177 176 179 184 177 170 167 173 178 183 185 170 167 168 174 154 182 178 192 208 228 190 202 210 111 140 150 229 190 178 181 199 210 178 181 182
173 174 175 175 179 179 179 182 181 183 184 175 168 160 171 180 186 186 175 166 171 183 163 167 144 187 205 239 233 194 189 187 221 192 208 199 195 184 184 190 180 178 177
171 175 177 177 179 181 183 186 189 188 183 178 172 165 173 176 183 187 178 168 177 181 163 155 163 191 225 271 316 302 201 207 219 212 201 204 199 190 180 171 174 189 185
Height
1498 1501 1504 1507 1509 1512 1514 1516 1518 1520 1522 1524 1526 1527 1529 1530 1532 1533 1534 1536 1537 1538 1539 1541 1542 1543 1544 1545 1546 1548 1549 1550 1551 1552 1553 1554 1555 1556 1557 1558 1559 1560 1561
1496 1501 1505 1508 1510 1513 1516 1518 1520 1522 1524 1526 1527 1529 1531 1532 1533 1535 1536 1538 1539 1540 1541 1542 1544 1545 1546 1547 1548 1550 1551 1552 1553 1554 1555 1556 1558 1559 1560 1561 1562 1563 1564
1496 1501 1505 1508 1511 1514 1517 1519 1522 1524 1526 1528 1529 1531 1532 1534 1535 1537 1538 1540 1541 1542 1543 1544 1545 1546 1548 1549 1550 1552 1553 1554 1555 1557 1558 1559 1560 1561 1562 1564 1565 1565 1567
1497 1502 1505 1509 1512 1515 1518 1520 1523 1525 1527 1529 1531 1532 1534 1536 1537 1539 1540 1541 1543 1544 1545 1546 1547 1548 1550 1551 1553 1554 1556 1557 1558 1559 1561 1562 1563 1564 1565 1566 1567 1568 1569
1499 1503 1506 1509 1513 1516 1519 1521 1524 1526 1528 1530 1532 1534 1536 1537 1539 1541 1542 1543 1544 1546 1547 1548 1549 1550 1552 1553 1555 1556 1558 1559 1560 1562 1563 1564 1565 1566 1567 1568 1569 1570 1571
1500 1503 1507 1510 1513 1517 1519 1522 1525 1527 1530 1532 1534 1536 1537 1539 1541 1542 1544 1545 1546 1547 1549 1550 1551 1552 1554 1555 1557 1558 1560 1561 1563 1564 1565 1566 1567 1568 1569 1570 1571 1572 1573
1502 1504 1507 1511 1514 1517 1520 1523 1526 1528 1531 1533 1535 1537 1539 1541 1542 1544 1545 1547 1548 1549 1550 1552 1553 1554 1556 1557 1559 1560 1562 1563 1564 1566 1566 1567 1568 1569 1570 1571 1573 1574 1575
1502 1504 1508 1512 1515 1518 1521 1524 1527 1529 1532 1534 1536 1538 1540 1542 1544 1545 1547 1548 1550 1551 1552 1553 1555 1556 1557 1559 1560 1562 1563 1564 1566 1566 1567 1568 1569 1571 1572 1573 1574 1575 1577
1503 1504 1509 1512 1516 1519 1522 1525 1528 1530 1533 1535 1537 1539 1541 1543 1545 1547 1548 1550 1551 1553 1554 1555 1556 1558 1559 1560 1562 1563 1564 1565 1567 1568 1568 1569 1571 1572 1573 1574 1575 1577 1578
1503 1505 1509 1512 1516 1519 1522 1525 1528 1531 1533 1536 1538 1540 1542 1544 1546 1548 1550 1551 1553 1554 1555 1557 1558 1559 1561 1562 1563 1565 1566 1567 1568 1569 1569 1571 1572 1573 1574 1575 1576 1578 1579
1504 1506 1510 1513 1516 1520 1523 1526 1529 1531 1534 1536 1539 1541 1543 1545 1547 1549 1551 1552 1554 1555 1557 1558 1560 1561 1562 1564 1565 1566 1567 1567 1568 1569 1570 1572 1573 1573 1574 1576 1577 1578 1580
1503 1507 1510 1513 1516 1520 1524 1525 1529 1532 1534 1537 1539 1542 1544 1547 1549 1551 1552 1554 1555 1556 1558 1560 1561 1562 1563 1565 1566 1567 1567 1568 1569 1569 1571 1572 1573 1574 1575 1576 1577 1579 1580
1503 1506 1510 1512 1515 1520 1523 1525 1529 1532 1534 1537 1540 1542 1545 1548 1549 1551 1553 1554 1555 1557 1559 1560 1562 1563 1564 1565 1567 1568 1568 1569 1569 1570 1572 1573 1574 1574 1575 1576 1578 1579 1580
1501 1505 1508 1510 1513 1518 1521 1525 1529 1532 1534 1537 1540 1543 1545 1548 1550 1551 1553 1554 1555 1557 1559 1561 1562 1564 1565 1566 1568 1568 1570 1570 1570 1570 1572 1573 1574 1575 1575 1577 1578 1579 1580
1499 1503 1506 1509 1511 1516 1520 1524 1528 1531 1534 1537 1539 1542 1545 1547 1550 1551 1553 1554 1556 1557 1559 1561 1562 1563 1565 1566 1567 1569 1570 1570 1570 1570 1572 1573 1574 1575 1575 1576 1578 1579 1580
1497 1500 1504 1506 1509 1513 1518 1522 1526 1530 1533 1536 1538 1541 1544 1546 1548 1551 1552 1554 1556 1557 1559 1560 1562 1563 1564 1566 1567 1568 1569 1570 1570 1570 1571 1572 1573 1574 1575 1576 1577 1578 1579
1494 1497 1500 1503 1507 1512 1516 1521 1525 1529 1532 1534 1536 1540 1543 1545 1547 1550 1552 1553 1555 1556 1558 1559 1561 1563 1564 1565 1566 1567 1568 1569 1570 1571 1571 1572 1573 1574 1575 1576 1577 1578 1579
1491 1494 1497 1501 1505 1509 1514 1518 1523 1527 1530 1533 1535 1538 1541 1544 1546 1548 1551 1552 1554 1556 1557 1559 1560 1562 1563 1565 1566 1567 1568 1569 1569 1570 1571 1572 1573 1573 1574 1575 1576 1577 1578
1489 1492 1495 1499 1502 1507 1512 1516 1521 1524 1528 1531 1534 1537 1539 1542 1545 1547 1550 1551 1553 1555 1557 1559 1560 1561 1562 1564 1565 1566 1567 1568 1569 1570 1571 1572 1572 1573 1573 1574 1575 1576 1577
1487 1490 1493 1497 1500 1505 1509 1513 1518 1522 1525 1529 1532 1535 1538 1540 1543 1546 1548 1550 1552 1555 1556 1557 1559 1560 1561 1563 1564 1565 1566 1567 1568 1569 1570 1571 1572 1572 1572 1573 1574 1575 1576
1485 1487 1491 1494 1497 1502 1506 1509 1514 1518 1522 1526 1530 1533 1536 1539 1541 1544 1547 1549 1551 1553 1555 1556 1558 1560 1561 1562 1564 1564 1565 1566 1566 1568 1569 1570 1570 1571 1572 1572 1573 1573 1574
1483 1486 1488 1491 1495 1499 1502 1506 1510 1515 1520 1523 1527 1530 1534 1537 1540 1543 1545 1547 1549 1551 1553 1555 1557 1559 1560 1562 1563 1563 1564 1566 1565 1566 1567 1568 1569 1570 1571 1572 1572 1573 1573
1481 1483 1486 1489 1492 1496 1500 1504 1508 1513 1517 1521 1525 1528 1531 1535 1538 1541 1543 1545 1548 1550 1551 1553 1555 1557 1559 1561 1562 1563 1563 1563 1564 1565 1566 1567 1568 1569 1570 1571 1571 1572 1572
1479 1482 1484 1487 1490 1493 1497 1501 1505 1509 1513 1517 1521 1525 1529 1532 1535 1538 1541 1544 1546 1548 1550 1552 1553 1556 1557 1559 1560 1561 1562 1562 1563 1564 1566 1566 1567 1568 1569 1570 1570 1570 1571
1477 1480 1482 1485 1487 1490 1494 1498 1502 1506 1511 1515 1519 1523 1526 1530 1533 1536 1539 1541 1544 1546 1548 1550 1551 1554 1555 1557 1559 1560 1560 1561 1562 1563 1564 1565 1566 1566 1567 1568 1569 1569 1569
1476 1478 1480 1482 1485 1488 1492 1496 1500 1504 1508 1513 1516 1520 1524 1527 1531 1534 1537 1539 1542 1544 1546 1548 1549 1551 1553 1554 1556 1558 1559 1560 1560 1561 1562 1563 1564 1564 1565 1566 1567 1568 1568